[keps] orb07193.2l.amsat

Ray Hoad r.hoad at att.net
Thu Jul 12 20:29:02 PDT 2007


SB KEPS @ AMSAT  $ORB07193.N
2Line Orbital Elements 07193.AMSAT

HR AMSAT ORBITAL ELEMENTS FOR AMATEUR SATELLITES IN NASA FORMAT
FROM WA5QGD FORT WORTH,TX July 12, 2007
Send SUBSCRIBE KEPS/UNSUBSCRIBE KEPS to majordomo at amsat.org only
BID: ORB07193.N

DECODE 2-LINE ELSETS WITH THE FOLLOWING KEY:
1 AAAAAU 00  0  0 BBBBB.BBBBBBBB  .CCCCCCCC  00000-0  00000-0 0  DDDZ
2 AAAAA EEE.EEEE FFF.FFFF GGGGGGG HHH.HHHH III.IIII JJ.JJJJJJJJKKKKKZ
KEY: A-CATALOGNUM B-EPOCHTIME C-DECAY D-ELSETNUM E-INCLINATION F-RAAN
G-ECCENTRICITY H-ARGPERIGEE I-MNANOM J-MNMOTION K-ORBITNUM Z-CHECKSUM

TO ALL RADIO AMATEURS BT

AO-07
1 07530U 74089B   07192.64208338 -.00000028  00000-0  10000-3 0 09250
2 07530 101.5122 229.9294 0011664 207.4990 152.5462 12.53572457494187
AO-10
1 14129U 83058B   07192.34214358  .00000035  00000-0  10000-3 0 03996
2 14129 026.3670 267.5095 6065144 037.9383 352.1297 02.05867411181065
UO-11
1 14781U 84021B   07193.41604922 -.00000174  00000-0 -15819-4 0  4182
2 14781 098.1885 216.6015 0010256 090.4281 269.8110 14.79564082253464
RS-15
1 23439U 94085A   07192.81649055 -.00000039  00000-0  10597-3 0 00869
2 23439 064.8187 327.0871 0158585 186.2903 173.6030 11.27551833516475
FO-29
1 24278U 96046B   07192.90430013  .00000024  00000-0  60090-4 0 05561
2 24278 098.5521 149.2320 0351401 019.3696 342.0419 13.52931405538242
SO-33
1 25509U 98061B   07193.70793955 -.00000125  00000-0 -38631-4 0  9704
2 25509 031.4315 081.4533 0355843 290.3877 065.8863 14.28166415454904
AO-40
1 26609U 00072B   07193.02064858 -.00000353  00000-0  10000-3 0  9036
2 26609 005.8914 133.5775 7980008 339.8921 001.2035 01.25586885 30754
VO-52
1 28650U 05017B   07192.96685141  .00000279  00000-0  42234-4 0 06751
2 28650 097.8313 263.1298 0027560 170.4134 189.7631 14.81335640118083
PO-63
1 29712U 07001D   07193.67021885  .00000521  00000-0  76151-4 0  5376
2 29712 097.9202 252.4752 0015496 050.4766 309.7818 14.79756607 27100
AO-16
1 20439U 90005D   07192.96945347 -.00000001  00000-0  14625-4 0 00791
2 20439 098.1957 186.1591 0011708 109.3996 250.8450 14.31764687912096
LO-19
1 20442U 90005G   07192.51465494  .00000073  00000-0  42205-4 0    58
2 20442 098.1803 195.0475 0012843 110.7241 249.5334 14.32005447912178
AO-27
1 22825U 93061C   07193.47128146  .00000038  00000-0  31180-4 0  7289
2 22825 098.3310 162.2510 0008353 180.9133 179.2019 14.29212986719107
IO-26
1 22826U 93061D   07192.88428267  .00000006  00000-0  18591-4 0  4251
2 22826 098.3246 162.7503 0008490 180.3191 179.7980 14.29459232719102
PO-28
1 22829U 93061G   07192.47840179 -.00000021  00000-0  79831-5 0 07042
2 22829 098.3129 163.5248 0009836 155.2650 204.8997 14.30159830719286
GO-32
1 25397U 98043D   07192.90851142 -.00000210  00000-0 -74462-4 0 03489
2 25397 098.4126 239.0381 0001786 126.1938 233.9397 14.23126870467676
MO-46
1 26548U 00057D   07193.19960357 -.00000038  00000-0  13231-4 0  8420
2 26548 064.5559 105.2857 0012368 194.2025 165.8752 14.83157812367248
NO-44
1 26931U 01043C   07193.20614345 -.00000017  00000-0  25747-4 0  6326
2 26931 067.0514 083.0420 0007602 263.9001 096.1242 14.29489471301679
SO-50
1 27607U 02058C   07193.47686558 -.00000016  00000-0  19554-4 0  3569
2 27607 064.5594 008.2514 0057150 353.0719 006.9615 14.71272135244845
CO-55
1 27844U 03031E   07192.68671045  .00000043  00000-0  40561-4 0 00727
2 27844 098.7174 200.6512 0010729 026.0190 334.1527 14.20520799208954
CO-57
1 27848U 03031J   07192.56952650  .00000008  00000-0  24146-4 0   308
2 27848 098.7166 199.7222 0010649 028.2976 331.8784 14.20338546208914
AO-51
1 28375U 04025K   07192.60065057  .00000011  00000-0  15811-4 0 08603
2 28375 098.1106 230.6595 0084713 107.9208 253.1240 14.40573800159231
CO-56
1 28941U 06005C   07193.66113309  .00018479  24764-5  18869-3 0  4946
2 28941 098.1283 257.6070 0223592 182.3966 177.6489 15.40587680 77350
HO-59
1 29484U 06041F   07193.64148292  .00048835  31260-5  32402-3 0  4932
2 29484 098.2830 247.3057 0202774 174.3918 185.9697 15.52639483 45024
NO-60
1 29661U 06055C   07150.05824307  .13324117  12618-4  10400-3 0  3000
2 29661 051.6186 176.5045 0007204 190.7749 188.7342 16.52052832 25544
NO-61
1 29664U 06055F   07193.52801386  .00040926  11863-4  12118-3 0  2898
2 29664 051.6319 318.6898 0011919 078.5139 281.7256 15.93268825 32196
CP4
1 31122U 07012F   07193.63271242  .00000343  00000-0  75874-4 0   802
2 31122 098.0886 266.0900 0084667 307.0578 052.3395 14.55015628 12652
CP3
1 31128U 07012M   07192.71820272 -.00000049  00000-0  00000-0 0 00763
2 31128 098.0827 264.7779 0102264 310.7633 048.4721 14.51846033012386
LIBERT
1 31129U 07012N   07193.67795432  .00000383  00000-0  10000-3 0  2158
2 31129 098.0809 265.7069 0101862 307.7962 051.3995 14.51938929 12500
NOAA-10
1 16969U 86073A   07193.18887739  .00000001  00000-0  18484-4 0  7253
2 16969 098.7443 210.3845 0013352 094.4366 265.8346 14.27329060 82791
NOAA-11
1 19531U 88089A   07193.30733320  .00000044  00000-0  45614-4 0  7241
2 19531 098.8118 282.1595 0011036 323.0403 037.0057 14.14847056969707
NOAA-12
1 21263U 91032A   07193.36042961  .00000161  00000-0  86942-4 0  2208
2 21263 098.7523 190.5590 0013441 038.4735 321.7393 14.25544926839833
MET-3/5
1 21655U 91056A   07192.93850391  .00000051  00000-0  10000-3 0 03665
2 21655 082.5524 345.4518 0013512 140.8592 219.3510 13.17011544764665
MET-2/21
1 22782U 93055A   07192.59458013  .00000001  00000-0 -12909-4 0 08757
2 22782 082.5474 022.5496 0022713 163.7606 196.4274 13.83618831699891
OKEAN-4
1 23317U 94066A   07192.81577970  .00000238  00000-0  26594-4 0  3137
2 23317 082.5389 273.5565 0022560 167.0713 193.1072 14.82517739687704
NOAA-14
1 23455U 94089A   07193.27522319 -.00000248  00000-0 -10739-3 0  7043
2 23455 098.9884 259.5929 0009828 034.6745 325.5079 14.13721358646185
SICH-1
1 23657U 95046A   07192.80587687  .00000231  00000-0  26257-4 0 01146
2 23657 082.5270 054.5129 0024325 158.2312 201.9938 14.81499347639676
NOAA-15
1 25338U 98030A   07193.45544597  .00000099  00000-0  61134-4 0   633
2 25338 098.5303 189.4253 0009904 320.8428 039.2044 14.24654045476286
RESURS
1 25394U 98043A   07192.72844384 -.00000001  00000-0  17545-4 0 06889
2 25394 098.4389 246.2861 0002265 096.9674 263.1763 14.24140333467843
FENGYUN1
1 25730U 99025A   07193.51418084  .00000725  00000-0  45354-3 0  1689
2 25730 098.6864 176.4197 0021792 057.7973 302.5319 14.07553568421031
OKEAN-0
1 25860U 99039A   07193.56193215  .00000036  00000-0  12759-4 0  1015
2 25860 097.7303 194.6238 0000951 034.7873 325.3398 14.73462707429236
NOAA-16
1 26536U 00055A   07193.47923440  .00000218  00000-0  14310-3 0  4780
2 26536 099.1170 170.8614 0011499 101.7111 258.5328 14.12440201350677
NOAA-17
1 27453U 02032A   07193.25377904 -.00000033  00000-0  41876-5 0  4909
2 27453 098.5787 261.9538 0012117 026.3457 333.8346 14.23892501262285
NOAA-18
1 28654U 05018A   07193.28360108 -.00000174  00000-0 -72487-4 0   275
2 28654 098.8281 134.1464 0013875 193.7403 166.3404 14.11076771110390
HUBBLE
1 20580U 90037B   07192.88825760  .00000328  00000-0  12580-4 0  9147
2 20580 028.4680 029.0503 0003305 357.8300 002.2278 15.00258938743670
UARS
1 21701U 91063B   07192.87850132  .00002091  00000-0  41467-4 0 01230
2 21701 056.9749 206.7629 0086787 237.7519 121.5122 15.48460394869578
PO-34
1 25520U 98064B   07192.45095652  .00000445  00000-0  12186-4 0 07810
2 25520 028.4608 306.3484 0005920 161.3245 198.7566 15.17020010481215
ISS
1 25544U 98067A   07193.90119973  .00017574  00000-0  10045-3 0  5701
2 25544 051.6341 330.9639 0008786 060.6032 079.8089 15.78942823494839
OO-38
1 26063U 00004C   07193.53497566  .00000003  00000-0  21277-4 0  9576
2 26063 100.2278 200.8390 0037458 088.3553 272.1927 14.35810457390684
UWE-1
1 28892U 05043C   07192.34356650  .00000044  00000-0  19036-4 0 07946
2 28892 098.1301 088.5073 0018248 039.9443 320.3079 14.59520471090730
CO-58
1 28895U 05043F   07192.73279349  .00000042  00000-0  18448-4 0  7721
2 28895 098.1309 089.1092 0018780 038.2982 321.9548 14.59566751 90672
NCUBE2
1 28897U 05043H   07193.28469144  .00000125  00000-0  35794-4 0  3000
2 28897 098.1291 089.6039 0018192 038.0799 322.1695 14.59730684 83037
NMARS
1 29662U 06055D   07126.39603970  .07031946  12599-4  11450-3 0  2632
2 29662 051.6121 302.3682 0004459 252.1654 110.7411 16.47981436 21652
FCAL
1 29667U 06055J   07192.79811781  .00012398  11140-4  53779-4 0 02113
2 29667 051.6339 325.1412 0014535 080.9523 279.3142 15.89027320031911
FALCON
1 30776U 07006E   07192.96937603  .00000179  00000-0  16240-4 0 00948
2 30776 035.4339 062.4267 0002062 325.1738 034.8843 15.02733201018786
MAST
1 31126U 07012K   07192.76750959  .00000392  00000-0  10000-3 0   786
2 31126 098.0808 265.0248 0093957 309.9482 049.3464 14.53351588 12425
CAPE1
1 31130U 07012P   07192.16581140  .00000071  00000-0  27819-4 0 00757
2 31130 098.0815 264.2451 0102218 312.3574 046.9000 14.51865552012097
/EX






More information about the Keps mailing list